TimeEDT,TemperatureF,Dew PointF,Humidity,Sea Level PressureIn,VisibilityMPH,Wind Direction,Wind SpeedMPH,Gust SpeedMPH,PrecipitationIn,Events,Conditions,WindDirDegrees,DateUTC
12:55 AM,55.0,36.9,50,29.82,10.0,NW,15.0,24.2,N/A,,Clear,310,2012-10-30 04:55:00
1:55 AM,53.6,35.2,50,29.81,10.0,NW,13.8,18.4,N/A,,Clear,310,2012-10-30 05:55:00
2:55 AM,52.0,35.1,53,29.81,10.0,NW,11.5,-,N/A,,Clear,310,2012-10-30 06:55:00
3:55 AM,50.7,34.3,53,29.81,10.0,WNW,13.8,-,N/A,,Clear,300,2012-10-30 07:55:00
4:55 AM,50.2,33.3,52,29.83,10.0,WNW,11.5,-,N/A,,Clear,300,2012-10-30 08:55:00
5:55 AM,48.4,34.5,59,29.84,10.0,West,6.9,-,N/A,,Clear,280,2012-10-30 09:55:00
6:55 AM,47.3,34.9,62,29.86,10.0,West,9.2,-,N/A,,Clear,270,2012-10-30 10:55:00
7:55 AM,47.3,33.4,59,29.88,10.0,West,9.2,-,N/A,,Clear,280,2012-10-30 11:55:00
8:55 AM,50.4,32.9,51,29.89,10.0,WNW,16.1,21.9,N/A,,Clear,300,2012-10-30 12:55:00
9:55 AM,53.8,32.9,45,29.90,10.0,West,11.5,-,N/A,,Clear,280,2012-10-30 13:55:00
10:55 AM,57.4,32.5,39,29.89,10.0,WNW,18.4,26.5,N/A,,Clear,290,2012-10-30 14:55:00
11:55 AM,61.0,34.3,37,29.88,10.0,West,19.6,27.6,N/A,,Clear,280,2012-10-30 15:55:00
12:55 PM,62.8,34.0,34,29.86,10.0,West,21.9,28.8,N/A,,Clear,270,2012-10-30 16:55:00
1:55 PM,65.5,37.4,35,29.83,10.0,West,21.9,29.9,N/A,,Clear,280,2012-10-30 17:55:00
2:55 PM,66.9,35.1,31,29.82,10.0,West,20.7,32.2,N/A,,Clear,270,2012-10-30 18:55:00
3:55 PM,66.9,32.7,28,29.82,10.0,WNW,17.3,-,N/A,,Clear,290,2012-10-30 19:55:00
4:55 PM,66.4,36.1,33,29.81,10.0,West,17.3,24.2,N/A,,Clear,270,2012-10-30 20:55:00
5:55 PM,64.4,34.9,33,29.82,10.0,West,17.3,21.9,N/A,,Clear,280,2012-10-30 21:55:00
6:55 PM,61.5,37.2,41,29.85,10.0,West,10.4,-,N/A,,Clear,260,2012-10-30 22:55:00
7:55 PM,59.0,38.3,46,29.88,10.0,West,9.2,-,N/A,,Clear,270,2012-10-30 23:55:00
8:55 PM,57.4,41.7,56,29.90,10.0,West,9.2,-,N/A,,Clear,280,2012-10-31 00:55:00
9:55 PM,56.3,43.7,63,29.93,10.0,West,10.4,-,N/A,,Clear,270,2012-10-31 01:55:00
10:55 PM,55.8,45.5,68,29.94,10.0,West,6.9,-,N/A,,Clear,260,2012-10-31 02:55:00
11:55 PM,54.7,46.6,74,29.95,10.0,West,5.8,-,N/A,,Clear,260,2012-10-31 03:55:00